Back to catalog

ATLAS 5 CENTAUR DEB

LostHEO
NORAD 57595·DEBRIS·🇺🇸 United States

Launched Oct 17, 2018 from Cape Canaveral Space Force Station

Loading…

Next Passes (next 24 hours)

TLE

StaleSource: Space-Track

Epoch: Aug 4, 2026, 18:25 UTC

1 57595U 18079HW  26216.76778423 -.00000134  00000-0  00000-0 0  9996
2 57595  12.7738  68.9673 4644736 246.8805  58.4294  1.69233160 29090

Track ATLAS 5 CENTAUR DEB in real time with AllMySat

Download on the App Store